Regional Weather Roundup
Issued by NWS

Home | Current Version | Previous Version | Graphics & Text | Print | Product List | Glossary On
Versions: 1 2 3 4 5 6 7 8 9 10 11 12 13 14 15 16 17 18 19 20 21 22 23 24 25 26 27 28 29 30 31 32 33 34 35 36 37 38 39 40 41 42 43 44 45 46 47 48 49 50
654
ASUS43 KBIS 232210
RWRND

NORTH DAKOTA REGIONAL WEATHER ROUNDUP
NATIONAL WEATHER SERVICE BISMARCK ND
500 PM CDT SAT JUL 23 2016

NOTE: "FAIR" INDICATES FEW OR NO CLOUDS BELOW 12,000 FEET WITH NO
SIGNIFICANT WEATHER AND/OR OBSTRUCTIONS TO VISIBILITY.


NDZ001>003-009>011-017-232300-
NORTHWEST NORTH DAKOTA

CITY           SKY/WX    TMP DP  RH WIND       PRES   REMARKS
WILLISTON      SUNNY     83  50  31 W22G35    29.83R
MINOT          SUNNY     85  49  28 W22       29.76S
MINOT AFB      SUNNY     80  58  46 W18G24    29.75S
$$

NDZ018>021-031>035-040>046-232300-
SOUTHWEST NORTH DAKOTA

CITY           SKY/WX    TMP DP  RH WIND       PRES   REMARKS
BISMARCK       MOSUNNY   83  63  50 NW13G21   29.81S
DICKINSON      SUNNY     81  44  27 W22G29    29.86F
GARRISON         N/A     80  55  42 W16G24    29.80S
HETTINGER ARPT SUNNY     87  42  20 W22G29    29.91S
$$

NDZ004>008-012>016-024-026-027-054-232300-
NORTHEAST NORTH DAKOTA

CITY           SKY/WX    TMP DP  RH WIND       PRES   REMARKS
GRAND FORKS    TSTM      70  67  90 NE7       29.74R
GRND FRKS AFB  PTSUNNY   70  68  94 CALM      29.75R
DEVILS LAKE    CLOUDY    76  68  76 CALM      29.76S
$$

NDZ022-023-025-028>030-036>039-047>053-232300-
SOUTHEAST NORTH DAKOTA

CITY           SKY/WX    TMP DP  RH WIND       PRES   REMARKS
FARGO          PTSUNNY   82  71  69 S13       29.69F
JAMESTOWN      CLOUDY    75  70  84 S7        29.76F
$$





USA.gov is the U.S. government's official web portal to all federal, state and local government web resources and services.